Temperature
6 6 5 5 5 4 4 3 3 3 2 2 2 1 1 0 -0 -1 -1 -1 -1 -2 -3 -4 -4 -4 -4 -4 -3 -3 -3 -3 -3 -3 -2 -2 -2 -2 -2 -1 -0 0 1
6 5 5 5 4 4 3 3 3 2 2 2 1 1 1 0 -0 -2 -2 -2 -2 -3 -3 -4 -5 -5 -5 -4 -4 -4 -4 -4 -4 -3 -3 -3 -3 -3 -2 -2 -1 -1 0
6 5 5 5 4 4 3 3 2 2 2 1 1 1 0 -0 -1 -2 -2 -3 -3 -3 -4 -5 -5 -6 -6 -5 -5 -5 -5 -4 -4 -4 -4 -4 -3 -3 -3 -2 -2 -2 -1
5 5 5 4 4 4 3 2 2 1 1 1 0 0 -0 -0 -1 -1 -2 -3 -4 -4 -5 -5 -6 -6 -6 -6 -6 -6 -5 -5 -5 -5 -4 -4 -4 -4 -3 -3 -3 -2 -1
6 5 5 4 4 3 3 2 2 1 0 -0 -0 -0 -0 -1 -1 -1 -2 -3 -4 -5 -5 -6 -6 -6 -6 -7 -7 -6 -6 -6 -6 -5 -5 -5 -4 -4 -4 -3 -3 -2 -2
6 5 5 4 4 3 3 2 1 1 0 -1 -1 -1 -1 -1 -1 -1 -2 -3 -4 -4 -5 -6 -6 -6 -7 -7 -7 -7 -7 -6 -6 -6 -6 -5 -5 -4 -4 -4 -3 -3 -2
6 5 5 4 4 3 3 2 1 0 -0 -2 -3 -3 -3 -2 -1 -2 -2 -3 -3 -4 -5 -5 -6 -7 -7 -7 -7 -7 -7 -7 -7 -6 -6 -6 -5 -5 -5 -4 -4 -3 -3
6 5 5 4 4 3 2 2 1 0 -1 -2 -3 -5 -5 -4 -5 -3 -3 -3 -3 -4 -5 -6 -6 -7 -7 -7 -7 -8 -8 -8 -7 -7 -7 -6 -6 -5 -5 -4 -4 -3 -3
6 6 5 4 4 3 2 2 1 0 -1 -2 -3 -4 -5 -4 -4 -5 -5 -4 -4 -5 -5 -6 -7 -7 -7 -7 -8 -8 -8 -8 -8 -8 -7 -7 -6 -6 -5 -5 -4 -4 -3
8 7 6 5 4 3 3 2 1 0 -1 -2 -4 -3 -4 -6 -7 -6 -6 -6 -6 -6 -6 -7 -7 -7 -7 -8 -8 -8 -9 -9 -9 -8 -8 -7 -6 -6 -5 -5 -5 -4 -4
9 8 6 5 4 3 3 2 1 0 -0 -1 -3 -4 -5 -6 -7 -9 -7 -6 -6 -6 -6 -7 -7 -7 -8 -8 -8 -8 -9 -9 -9 -9 -8 -8 -7 -6 -6 -5 -5 -5 -4
10 9 7 6 4 4 3 2 1 0 -0 -1 -2 -3 -4 -6 -6 -7 -7 -7 -6 -6 -6 -7 -7 -7 -7 -8 -8 -9 -9 -9 -9 -9 -9 -8 -8 -7 -7 -6 -6 -5 -5
11 11 9 7 5 4 3 2 1 0 -0 -1 -2 -2 -4 -4 -6 -7 -8 -8 -7 -7 -7 -7 -7 -7 -7 -7 -8 -8 -9 -9 -9 -9 -9 -9 -8 -8 -7 -7 -6 -6 -6
11 10 9 7 5 4 3 2 1 0 -0 -1 -2 -2 -3 -4 -5 -6 -7 -8 -8 -8 -7 -6 -6 -6 -7 -7 -8 -9 -9 -9 -9 -9 -9 -9 -9 -8 -8 -7 -7 -7 -6
10 9 8 6 5 4 3 2 1 0 -0 -1 -2 -2 -3 -4 -5 -6 -7 -8 -9 -9 -8 -6 -7 -7 -7 -8 -8 -9 -9 -9 -9 -9 -9 -9 -9 -8 -8 -8 -7 -7 -7
9 8 6 5 4 3 2 2 1 0 -0 -1 -2 -2 -3 -4 -5 -6 -7 -8 -9 -10 -10 -8 -7 -7 -8 -8 -8 -9 -9 -9 -9 -9 -9 -9 -9 -9 -8 -8 -8 -7 -7
9 7 6 4 3 2 2 1 1 0 -1 -1 -2 -2 -3 -3 -5 -5 -7 -8 -9 -10 -10 -9 -8 -8 -8 -8 -8 -8 -9 -9 -9 -9 -9 -9 -9 -9 -9 -8 -8 -8 -7
8 7 5 4 3 2 1 1 0 -0 -1 -1 -2 -2 -3 -4 -5 -5 -7 -8 -8 -9 -10 -9 -8 -8 -8 -8 -8 -8 -9 -9 -9 -9 -9 -9 -9 -9 -9 -9 -8 -8 -8
8 6 5 3 3 1 0 0 -0 -1 -1 -1 -2 -3 -3 -4 -4 -5 -6 -8 -8 -9 -9 -9 -9 -8 -8 -8 -8 -8 -9 -9 -9 -9 -9 -9 -9 -9 -9 -9 -9 -8 -8
7 5 4 2 1 0 -0 -1 -1 -1 -2 -2 -2 -3 -3 -4 -4 -5 -6 -7 -8 -8 -9 -9 -9 -8 -8 -8 -8 -8 -9 -9 -9 -9 -9 -9 -9 -9 -9 -9 -9 -9 -8
6 5 3 1 -0 -1 -1 -1 -2 -2 -2 -2 -3 -3 -3 -4 -4 -5 -6 -7 -7 -8 -8 -8 -8 -8 -8 -8 -8 -8 -9 -9 -9 -9 -10 -10 -10 -10 -10 -10 -9 -9 -9
5 4 3 1 -1 -1 -2 -3 -3 -3 -3 -3 -3 -3 -3 -4 -4 -5 -6 -7 -7 -8 -8 -8 -8 -8 -8 -8 -9 -9 -9 -10 -10 -10 -10 -10 -10 -10 -10 -10 -9 -9 -9
5 3 2 0 -1 -2 -3 -4 -4 -4 -3 -3 -3 -3 -4 -4 -5 -6 -6 -7 -7 -8 -8 -8 -8 -8 -9 -9 -9 -10 -10 -10 -10 -10 -10 -10 -10 -10 -10 -10 -9 -9 -9
4 3 2 0 -1 -2 -4 -4 -4 -5 -4 -4 -4 -4 -4 -4 -5 -6 -7 -7 -7 -8 -8 -8 -8 -9 -9 -9 -10 -10 -10 -11 -11 -11 -11 -11 -10 -10 -10 -10 -9 -9 -9
3 2 0 -1 -2 -3 -4 -5 -5 -5 -5 -4 -4 -4 -4 -5 -5 -7 -8 -8 -8 -8 -8 -8 -9 -9 -9 -9 -10 -10 -11 -11 -11 -11 -11 -11 -11 -10 -10 -10 -9 -9 -8
2 1 -1 -2 -3 -4 -4 -5 -5 -5 -5 -5 -5 -5 -5 -5 -5 -7 -7 -8 -8 -8 -8 -9 -9 -9 -10 -10 -11 -11 -12 -12 -12 -12 -11 -11 -11 -11 -10 -9 -8 -8 -8
Wind_Speed
10 10 8 8 7 6 5 3 2 2 3 4 5 7 8 10 11 11 11 13 16 18 19 19 20 21 22 23 23 24 24 25 26 27 28 29 30 31 32 33 35 36 37
12 11 10 9 8 7 6 4 3 3 4 5 7 8 10 11 11 12 12 13 15 16 18 18 19 20 22 23 24 24 25 26 27 28 29 30 31 31 32 33 35 37 38
14 12 10 10 9 8 7 6 5 5 5 7 8 10 10 12 13 13 13 13 13 14 16 18 19 20 22 23 24 25 26 27 28 29 30 31 32 32 33 34 35 37 38
17 14 12 11 11 9 8 7 6 5 6 6 7 8 10 11 14 14 14 13 13 13 14 16 18 20 22 23 24 26 27 27 28 29 30 31 33 34 35 35 37 38 39
20 17 13 12 12 11 9 8 7 6 7 7 8 8 10 12 13 13 14 14 14 14 14 15 18 20 21 23 24 26 27 28 29 30 31 32 34 35 36 37 38 39 40
21 19 15 15 14 11 9 9 9 8 7 7 8 10 11 12 13 12 13 13 14 15 15 16 16 17 20 22 24 26 27 29 30 31 32 33 34 36 37 38 39 40 41
22 21 16 16 15 12 12 11 10 10 9 7 8 9 10 12 11 10 11 12 13 15 15 16 16 16 16 20 23 25 27 29 31 32 33 34 35 37 38 39 40 41 42
24 22 21 16 16 13 14 13 12 9 8 8 7 6 6 6 9 9 9 10 12 14 15 16 17 18 19 19 21 26 28 30 31 33 34 35 37 38 39 40 41 42 42
26 25 24 20 17 15 14 15 14 14 11 9 9 7 6 5 5 7 11 11 11 11 13 16 18 20 21 21 22 24 27 29 31 33 35 36 38 39 40 41 41 42 42
27 27 25 24 20 17 16 15 15 13 13 11 9 10 11 8 7 6 6 9 12 13 14 15 17 20 22 22 23 27 29 30 32 33 35 37 38 39 40 41 41 42 41
26 28 27 24 21 17 17 17 16 16 14 13 11 9 10 11 12 10 10 11 11 12 13 15 16 19 22 23 23 25 28 30 32 34 36 37 38 40 41 42 41 41 42
18 25 26 24 22 18 19 18 17 18 15 15 13 12 11 10 9 11 13 14 14 14 15 14 15 18 20 22 24 27 30 31 33 34 36 37 38 39 41 41 42 41 42
17 22 23 22 20 21 20 19 18 18 18 17 16 13 12 13 12 12 14 16 17 16 17 15 14 17 19 20 21 26 28 31 33 34 36 37 37 38 40 41 41 41 41
18 19 23 23 23 22 20 19 17 17 16 17 17 17 13 13 13 13 14 15 16 17 17 20 15 16 17 19 22 27 27 31 32 33 35 36 37 39 40 40 41 40 40
16 20 21 23 22 22 21 20 16 18 16 17 17 17 15 14 13 13 14 14 15 17 19 21 17 16 17 20 23 24 25 29 32 34 36 37 38 39 40 40 40 39 39
19 19 21 22 22 22 22 20 17 17 18 17 14 16 16 14 13 13 14 14 15 17 18 18 18 19 19 19 25 26 27 32 35 36 37 38 38 39 39 39 39 39 38
20 20 20 21 22 22 22 21 20 19 19 18 17 17 18 17 14 14 14 14 15 16 19 21 20 20 23 23 21 24 25 26 26 33 36 37 38 38 39 39 39 38 37
19 20 20 21 22 22 23 23 22 21 20 20 19 18 19 15 18 16 15 17 16 17 18 23 22 20 23 23 23 23 21 22 23 31 35 37 38 38 38 38 37 37 36
19 20 21 22 22 22 22 23 22 21 20 20 19 18 18 17 18 16 17 16 15 16 17 19 22 20 20 20 22 22 23 20 22 26 31 33 35 36 36 36 36 35 35
19 20 20 21 20 19 20 21 20 19 19 19 18 18 18 18 19 18 16 18 17 18 18 19 20 20 19 20 18 18 19 18 19 19 23 25 29 33 34 35 35 34 33
18 19 20 20 20 18 18 20 19 19 19 18 18 18 19 21 22 19 16 16 16 16 16 17 18 19 19 18 17 17 19 20 20 18 19 19 19 19 20 25 28 30 30
17 18 19 20 21 18 26 31 23 19 18 18 18 17 18 21 24 27 28 27 24 19 18 18 18 20 21 21 19 18 19 20 21 16 17 19 17 18 18 17 23 27 27
17 18 19 20 22 23 29 32 32 20 18 18 18 16 14 15 20 16 21 25 24 27 27 21 22 22 23 21 21 23 21 22 22 19 18 20 18 19 17 18 27 28 28
15 16 18 20 21 23 29 31 31 24 19 18 18 17 17 16 15 15 14 17 18 18 20 17 17 20 20 20 20 21 22 22 23 18 17 19 18 18 17 17 24 27 29
15 15 16 19 20 21 27 30 29 17 17 19 17 17 17 17 20 20 17 18 19 16 19 23 25 25 28 29 24 17 18 18 19 17 14 15 16 16 16 17 19 25 27
14 14 15 17 19 19 23 29 30 16 16 15 15 15 20 20 20 20 16 16 18 16 14 15 18 19 19 20 23 16 15 15 17 15 12 11 13 12 11 12 11 11 14
Wind_Direction
200 200 202 202 205 204 207 217 247 300 307 310 308 307 305 302 299 297 295 295 298 300 300 302 304 306 308 308 309 310 312 312 312 312 312 312 311 310 309 307 305 301 298
204 202 204 205 207 207 209 216 236 268 283 288 289 290 291 292 288 288 286 288 287 289 291 294 297 301 302 304 305 306 307 308 307 307 307 307 306 305 304 303 301 299 295
207 206 208 207 207 204 207 215 223 247 265 273 277 282 284 283 282 282 281 279 280 279 280 284 289 293 297 300 301 302 302 303 303 303 302 302 302 301 300 299 298 295 293
208 209 211 211 206 204 210 216 226 240 250 262 272 277 277 277 276 276 273 270 270 272 274 276 281 287 292 295 296 297 298 299 300 300 299 299 299 298 297 296 295 293 290
208 210 214 212 205 207 211 214 221 232 245 253 264 273 274 272 272 269 265 263 262 263 268 274 276 281 285 289 292 294 295 296 296 296 296 296 296 295 294 293 292 290 287
207 210 214 212 207 209 211 212 219 223 237 251 264 270 270 269 268 263 261 259 258 259 264 269 275 277 280 284 288 291 292 294 294 294 293 293 293 291 291 290 290 289 286
207 209 212 211 209 212 214 214 218 226 230 234 255 266 264 257 257 254 253 255 258 261 264 267 272 276 280 284 286 288 290 291 292 292 291 290 289 288 287 287 287 287 285
209 209 212 211 209 213 215 215 215 223 228 220 233 266 280 256 233 244 253 257 262 266 266 268 272 276 280 283 283 285 287 288 290 290 289 287 286 285 285 284 285 285 284
211 210 212 212 211 211 214 213 212 217 224 219 220 234 257 277 288 249 251 257 263 266 268 272 274 276 279 281 283 284 284 286 287 287 286 285 283 283 282 282 283 284 284
214 212 212 212 212 212 215 214 212 216 222 229 222 225 236 254 269 286 252 249 256 263 266 270 274 276 277 279 280 281 283 284 284 284 284 283 282 282 282 283 282 284 286
215 214 212 211 212 212 214 213 210 213 216 224 226 225 232 242 241 250 274 278 272 269 271 274 276 276 276 276 278 279 281 282 283 283 283 283 282 283 283 284 284 285 288
214 215 213 212 211 211 212 212 211 213 215 221 226 230 233 236 240 247 265 276 282 282 281 279 277 276 275 274 276 279 281 282 282 282 282 281 282 282 283 284 285 286 287
216 214 211 212 211 210 209 209 210 214 216 220 224 228 233 239 246 255 265 276 282 284 284 280 275 275 276 276 277 279 281 281 281 281 280 280 280 281 282 283 283 284 285
221 216 213 213 211 209 207 207 210 214 216 220 225 228 234 240 242 247 256 270 281 284 283 282 283 280 282 282 279 280 280 279 279 279 279 279 278 278 279 280 281 281 283
225 219 215 215 213 209 206 205 210 212 214 219 224 227 233 240 242 246 251 255 266 280 284 287 289 286 286 284 281 280 278 278 278 278 277 277 277 277 277 277 278 279 281
226 223 219 216 214 210 207 206 210 213 213 218 222 228 232 238 242 245 248 252 254 262 274 280 286 286 287 283 281 280 279 278 278 277 277 277 277 276 276 276 276 277 278
228 225 222 218 215 211 207 207 209 209 214 219 221 226 233 237 242 246 249 251 253 255 265 276 281 284 286 285 283 280 278 277 276 275 275 275 275 275 274 274 273 274 275
230 226 223 220 218 214 209 207 209 209 212 218 222 225 234 235 240 246 249 252 254 256 262 273 280 284 284 285 284 282 281 278 276 275 275 275 274 274 274 273 272 271 271
231 226 223 221 218 214 210 209 209 210 213 218 222 225 232 235 242 245 249 253 256 259 261 268 276 281 283 284 285 283 281 279 278 276 276 275 274 274 273 272 271 270 269
232 229 226 225 221 216 212 209 208 210 213 219 223 227 232 234 240 246 251 254 257 261 264 267 274 280 283 286 285 286 286 285 282 280 278 275 274 273 272 271 270 268 266
234 231 229 227 223 217 214 209 206 208 212 218 224 229 233 236 239 243 246 252 256 260 265 271 277 283 286 290 290 291 291 291 286 283 281 277 275 271 271 269 266 264 262
235 232 230 228 225 221 219 214 207 209 213 218 225 230 235 241 246 249 254 258 260 265 272 277 280 283 287 291 294 293 291 290 289 286 281 278 274 272 268 265 263 262 260
237 233 231 229 230 227 223 219 213 209 214 218 223 230 234 238 243 246 256 263 269 270 271 273 277 282 288 292 293 291 288 286 285 288 287 280 276 272 269 264 264 260 258
239 235 232 230 231 230 225 222 218 214 218 222 225 229 236 242 242 246 252 259 262 264 265 267 270 276 280 284 285 287 290 289 285 281 275 275 276 274 272 267 265 258 255
244 240 236 233 233 232 226 223 219 217 221 225 228 231 237 245 250 252 256 262 268 269 271 273 274 278 283 289 291 292 290 289 288 287 281 275 277 279 276 271 264 258 252
247 243 239 235 234 233 227 222 220 217 220 224 228 231 236 242 249 253 256 264 271 278 282 283 283 284 285 286 287 282 282 283 285 288 283 274 276 280 280 271 266 261 253
Height
1565 1565 1564 1563 1563 1562 1561 1560 1558 1557 1555 1554 1551 1549 1546 1543 1540 1537 1534 1531 1528 1525 1523 1522 1521 1520 1519 1517 1516 1514 1511 1509 1506 1504 1503 1501 1499 1497 1496 1494 1493 1493 1493
1561 1561 1560 1559 1559 1558 1557 1556 1554 1553 1551 1550 1547 1545 1542 1539 1536 1533 1530 1526 1524 1521 1519 1517 1516 1515 1514 1512 1511 1508 1506 1504 1501 1499 1497 1495 1493 1492 1490 1489 1488 1487 1486
1556 1556 1555 1555 1554 1553 1552 1551 1550 1549 1547 1545 1543 1540 1538 1535 1532 1529 1525 1522 1519 1516 1514 1511 1510 1509 1508 1507 1505 1503 1500 1498 1495 1493 1491 1489 1487 1485 1484 1482 1481 1480 1479
1550 1550 1550 1549 1549 1548 1547 1546 1545 1543 1542 1540 1538 1536 1533 1530 1527 1524 1521 1518 1515 1512 1509 1506 1504 1503 1502 1500 1498 1496 1494 1491 1488 1486 1484 1482 1480 1478 1477 1475 1474 1472 1471
1544 1544 1544 1543 1543 1542 1541 1540 1539 1538 1536 1534 1532 1530 1528 1525 1522 1519 1516 1513 1510 1507 1504 1501 1499 1496 1494 1492 1491 1489 1486 1483 1481 1479 1476 1474 1472 1471 1469 1468 1466 1465 1464
1536 1537 1537 1537 1536 1536 1535 1534 1533 1531 1530 1528 1526 1524 1522 1519 1516 1514 1511 1508 1505 1502 1499 1496 1494 1491 1488 1485 1483 1480 1478 1475 1473 1470 1468 1466 1465 1463 1461 1460 1458 1457 1455
1528 1529 1529 1529 1529 1528 1528 1528 1527 1525 1523 1521 1519 1517 1514 1512 1510 1508 1505 1502 1500 1497 1494 1491 1488 1485 1481 1478 1475 1472 1469 1467 1464 1462 1460 1458 1457 1455 1454 1452 1450 1448 1446
1519 1519 1520 1521 1521 1521 1520 1520 1519 1519 1517 1515 1514 1513 1510 1508 1503 1502 1500 1497 1494 1491 1488 1485 1482 1479 1475 1471 1467 1464 1461 1458 1456 1454 1452 1450 1448 1447 1445 1443 1441 1439 1436
1508 1509 1511 1512 1512 1512 1512 1511 1511 1511 1511 1509 1507 1507 1506 1502 1500 1495 1493 1491 1488 1484 1481 1478 1475 1472 1468 1464 1460 1456 1452 1450 1447 1445 1443 1441 1439 1438 1436 1434 1431 1429 1426
1498 1499 1501 1502 1502 1502 1502 1503 1503 1503 1503 1502 1501 1498 1498 1496 1494 1489 1486 1484 1481 1478 1475 1471 1468 1465 1461 1457 1452 1448 1445 1441 1439 1436 1435 1432 1430 1428 1426 1423 1421 1418 1415
1486 1487 1489 1490 1491 1491 1493 1493 1493 1493 1493 1494 1493 1492 1490 1489 1487 1484 1479 1478 1475 1472 1469 1466 1461 1457 1453 1449 1445 1440 1437 1433 1430 1428 1425 1423 1420 1418 1415 1413 1410 1407 1404
1473 1475 1476 1478 1479 1480 1482 1483 1483 1484 1484 1484 1484 1483 1483 1481 1480 1478 1473 1469 1467 1464 1462 1458 1454 1450 1445 1441 1437 1432 1428 1424 1421 1418 1415 1413 1410 1408 1405 1402 1399 1397 1394
1461 1462 1464 1465 1467 1468 1471 1473 1473 1474 1474 1475 1475 1475 1474 1472 1472 1470 1466 1461 1458 1454 1452 1448 1446 1442 1438 1434 1428 1424 1419 1415 1411 1408 1405 1403 1400 1397 1395 1392 1389 1387 1384
1451 1452 1452 1454 1455 1458 1460 1462 1463 1464 1465 1465 1466 1466 1465 1464 1463 1461 1459 1456 1450 1445 1442 1438 1438 1435 1430 1426 1420 1415 1410 1405 1402 1398 1395 1392 1389 1387 1384 1382 1379 1376 1374
1441 1441 1441 1442 1444 1446 1448 1450 1451 1453 1455 1455 1456 1456 1456 1455 1454 1453 1451 1449 1446 1438 1431 1428 1427 1424 1421 1416 1411 1406 1401 1396 1392 1388 1385 1382 1379 1376 1373 1371 1368 1365 1363
1431 1430 1429 1430 1432 1434 1437 1438 1440 1443 1444 1445 1446 1447 1446 1446 1445 1444 1442 1440 1437 1432 1424 1417 1416 1414 1411 1406 1402 1397 1392 1387 1382 1378 1374 1371 1367 1364 1361 1359 1356 1354 1352
1421 1420 1419 1419 1420 1422 1425 1426 1428 1431 1433 1435 1436 1437 1437 1437 1436 1434 1433 1430 1427 1424 1416 1408 1407 1404 1401 1396 1392 1387 1382 1377 1371 1367 1363 1359 1355 1352 1349 1346 1344 1342 1341
1410 1409 1408 1408 1408 1410 1412 1414 1417 1420 1422 1425 1426 1427 1427 1427 1426 1425 1423 1420 1417 1415 1410 1402 1396 1394 1391 1387 1381 1376 1371 1366 1361 1355 1351 1347 1343 1339 1336 1334 1332 1330 1329
1400 1398 1397 1396 1396 1397 1399 1402 1406 1409 1411 1414 1416 1417 1418 1418 1416 1415 1413 1411 1408 1405 1402 1396 1388 1385 1380 1377 1371 1365 1360 1355 1349 1344 1339 1335 1331 1327 1323 1321 1319 1318 1318
1390 1388 1386 1385 1385 1386 1388 1391 1394 1397 1400 1404 1406 1407 1408 1407 1406 1406 1404 1401 1399 1396 1393 1388 1381 1375 1371 1367 1362 1355 1349 1344 1339 1334 1328 1323 1319 1315 1311 1308 1306 1306 1306
1380 1378 1376 1375 1374 1375 1375 1379 1382 1386 1390 1393 1396 1397 1398 1398 1397 1396 1394 1392 1390 1387 1384 1379 1373 1368 1362 1358 1353 1348 1340 1333 1327 1324 1317 1312 1308 1303 1299 1296 1294 1293 1293
1370 1368 1365 1364 1363 1363 1364 1369 1372 1376 1380 1383 1385 1387 1388 1388 1387 1386 1385 1384 1383 1380 1375 1372 1366 1360 1354 1350 1344 1339 1332 1324 1314 1314 1309 1301 1298 1292 1289 1286 1284 1283 1283
1361 1357 1355 1354 1353 1353 1356 1360 1363 1366 1370 1373 1375 1377 1378 1378 1378 1377 1375 1373 1372 1370 1367 1364 1357 1351 1346 1341 1336 1328 1322 1315 1306 1302 1299 1289 1287 1282 1279 1276 1274 1273 1272
1350 1347 1345 1343 1343 1343 1346 1351 1355 1358 1360 1363 1366 1368 1369 1369 1369 1368 1365 1363 1360 1358 1356 1353 1348 1342 1337 1332 1327 1320 1312 1304 1296 1292 1289 1281 1276 1272 1269 1265 1263 1262 1262
1342 1339 1336 1334 1333 1334 1337 1341 1347 1349 1351 1354 1356 1358 1360 1360 1360 1360 1358 1355 1352 1349 1347 1344 1339 1334 1328 1323 1318 1311 1303 1296 1287 1281 1280 1274 1268 1264 1259 1255 1253 1252 1252
1333 1330 1327 1325 1325 1325 1328 1332 1338 1341 1343 1345 1348 1349 1351 1351 1351 1351 1350 1347 1344 1341 1338 1333 1329 1323 1318 1312 1307 1302 1295 1289 1281 1274 1270 1267 1262 1259 1252 1247 1245 1244 1244